Regional Weather Roundup
Issued by NWS Boston, MA

Home | Current Version | Previous Version | Text Only | Print | Product List | Glossary On
Versions: 1 2 3 4 5 6 7 8 9 10 11 12 13 14 15 16 17 18 19 20 21 22 23 24 25 26 27 28 29 30 31 32 33 34 35 36 37 38 39 40 41 42 43 44 45 46 47 48 49 50
000
ASUS41 KBOX 312110
RWRBOX

REGIONAL WEATHER ROUNDUP
NATIONAL WEATHER SERVICE TAUNTON MA
400 PM EST SAT JAN 31 2015

NOTE:  "FAIR" INDICATES FEW OR NO CLOUDS BELOW 12,000 FEET WITH NO
SIGNIFICANT WEATHER AND/OR OBSTRUCTIONS TO VISIBILITY.  THE FOLLOWING
OBSERVATION LOCATIONS DO NOT REPORT PRESENT WEATHER...PROVINCETOWN...
SMITHFIELD...BLOCK ISLAND...KEENE...AND OXFORD.

MAZALL-312200-
EASTERN MASSACHUSETTS

CITY           SKY/WX    TMP DP  RH WIND       PRES   REMARKS
BOSTON         PTCLDY    21  -6  30 NW26G40   29.88R WCI   4
BEVERLY        CLEAR     18  -9  29 NW20G31   29.87R WCI   2
LAWRENCE       CLEAR     17  -8  32 NW17G29   29.91R WCI   1
BEDFORD        CLEAR     19  -6  33 W20G28    29.90R WCI   3
BLUE HILL        N/A     17  -5  37 NW22G37   29.82R WCI   0
NORWOOD        CLEAR     21  -6  30 NW22G31   29.90R WCI   5
MARSHFIELD     CLEAR     25  -6  26 NW10G25   29.87R WCI  15
PLYMOUTH       CLEAR     22  -5  30 NW20G33   29.85R WCI   7
TAUNTON        CLEAR     23  -7  26 NW12G28   29.88R WCI  12
NEW BEDFORD    CLEAR     23  -7  26 NW13G26   29.87R WCI  11
$$

MAZALL-312200-
CAPE COD AND THE ISLANDS

CITY           SKY/WX    TMP DP  RH WIND       PRES   REMARKS
FALMOUTH       CLEAR     21  -6  30 NW21G33   29.83R WCI   6
HYANNIS        CLEAR     24  -5  27 NW15G31   29.80R WCI  11
CHATHAM        CLEAR     23   1  38 NW17G32   29.81R WCI   9
PROVINCETOWN   CLEAR     25   5  42 NW29G41   29.83R WCI   8
NANTUCKET      CLEAR     25   2  37 NW20G33   29.81R WCI  11
MARTHAS VNYRD  CLEAR     23  -4  30 NW25G38   29.84R WCI   7
$$

MAZALL-312200-
CENTRAL AND WESTERN MASSACHUSETTS

CITY           SKY/WX    TMP DP  RH WIND       PRES   REMARKS
WORCESTER      CLEAR     15  -4  42 NW31G43   29.87R BLWGSNOWWCI  -6
FITCHBURG        N/A     18  -6  34 NW21G35   29.94  WCI   1
ORANGE         CLEAR     16  -5  39 N15G29    29.98R WCI   1
SPRINGFIELD    CLEAR     18  -3  38 NW23G41   30.01R WCI   0
WESTFIELD      CLEAR     18  -5  36 NW20G26   30.03R WCI   2
NORTH ADAMS    CLEAR     13  -8  39 W9G18     30.06S WCI   1
PITTSFIELD     CLEAR     10  -8  44 W16G25    30.00R WCI  -7
$$

RIZALL-312200-
RHODE ISLAND

CITY           SKY/WX    TMP DP  RH WIND       PRES   REMARKS
PROVIDENCE     PTCLDY    23  -4  30 NW15G28   29.92R WCI  10
NEWPORT        CLEAR     23   0  36 NW16G25   29.90R WCI  10
BLOCK ISLAND   CLEAR     21   0  39 NW16G30   29.93R WCI   7
SMITHFIELD     CLEAR     19  -6  32 NW18G28   29.88R WCI   4
WESTERLY       CLEAR     21  -6  30 NW15G26   29.96R WCI   8
$$

CTZALL-312200-
CONNECTICUT

CITY           SKY/WX    TMP DP  RH WIND       PRES   REMARKS
BRADLEY INTL   CLEAR     20  -5  33 NW12      30.03R WCI   8
HARTFORD       CLEAR     20  -5  33 NW13G28   30.05R WCI   7
BRIDGEPORT     SUNNY     24   0  35 NW15G23   30.05R WCI  11
DANBURY        SUNNY     22  -5  30 NW15G23   30.05R WCI   9
GROTON         CLEAR     20  -3  36 NW20G28   29.98R WCI   4
NEW HAVEN      SUNNY     23  -4  30 NW21G31   30.04R WCI   8
CHESTER        FAIR      21  -6  30 NW16G32   29.99R WCI   7
MERIDEN        CLEAR     21  -5  31 NW18G28   30.04R WCI   6
WILLIMANTIC    CLEAR     19  -5  34 NW10G22   30.00R WCI   7
OXFORD         SUNNY     19  -8  30 NW21G30   30.01R WCI   3
$$

MEZ002-015-021-024-NHZ003-005-008-011-012-014-VTZ005-008-312200-
NORTHERN NEW ENGLAND

CITY           SKY/WX    TMP DP  RH WIND       PRES   REMARKS
PORTLAND ME    MOCLDY    20  -5  33 NW22G35   29.81R WCI   3
BANGOR ME      LGT SNOW  12   5  73 NW20G31   29.71R VSB 1   WCI  -6
CONCORD NH     CLEAR     14  -8  37 NW16G31   29.95R WCI  -2
MANCHESTER NH  CLEAR     16  -7  35 NW18G39   29.91R WCI   0
NASHUA NH      CLEAR     18  -6  34 NW25G35   29.92R WCI   0
PORTSMOUTH NH  PTCLDY    17  -7  34 W18G26    29.83R WCI   0
JAFFREY NH     CLEAR     13  -9  37 NW9G24    29.92R WCI   1
KEENE NH       CLEAR     16  -6  38 NW13G24   30.00R WCI   2
BURLINGTON VT  CLEAR      8 -12  39 N9        30.13S WCI  -5
MT. WASHINGTON PTCLDY    -6 -13  71 NW87G102    N/A  WCI -45
$$

NYZ052-076-312200-
EASTERN NEW YORK

CITY           SKY/WX    TMP DP  RH WIND       PRES   REMARKS
ALBANY         CLEAR     14  -4  44 W25G37    30.13S WCI  -5
NEW YORK CITY  MOSUNNY   26   3  37 NW22G32   30.10R WCI  12
$$

ANZALL-312200-
MARINE OBSERVATIONS

STATION/POSITION TIME  TEMP    WIND        PRES    VSBY  WAVE
                       AIR SEA DIR/SP/G                  HT/PER
                 (UTC) (F)     (DEG/KT/KT) (MB)    (MI)  (FT/S)
BOSTON BUOY      2050   23 40  320/ 29/ 39 1010.9R         8/ 6
BUZZARDS BAY     2100          310/ 30/ 34 1012.5R
NANTUCKET SOUND  NOT AVBL
MASS BAY-STELLWA 2004   22 40  310/ 25/ 33   N/A    1 7/8  7/ 5
ISLE OF SHOALS   2100   18     310/ 34/ 38 1008.7R
S OF BLOCK IS    2008      41                N/A          10/ 6
$$

......................KEY.........................
  SKY/WX - SKY CONDITION/PRESENT WEATHER
  TMP    - TEMPERATURE IN FAHRENHEIT
  DWPT   - DEWPOINT IN FAHRENHEIT
  RH     - RELATIVE HUMIDITY IN PERCENT
  WIND   - DIRECTION AND SPEED IN MPH
  PRES   - MEAN SEA LEVEL PRESSURE IN INCHES OF HG
  WCI    - WIND CHILL INDEX
  VSB    - VISIBILITY IN MILES
  HX     - HEAT INDEX
  TC     - TEMPERATURE IN CELSIUS
  VRB    - VARIABLE WIND DIRECTION
  N/A    - NOT AVAILABLE



USA.gov is the U.S. government's official web portal to all federal, state and local government web resources and services.